Regional Weather Roundup
Issued by NWS

Home | Current Version | Previous Version | Graphics & Text | Print | Product List | Glossary On
Versions: 1 2 3 4 5 6 7 8 9 10 11 12 13 14 15 16 17 18 19 20 21 22 23 24 25 26 27 28 29 30 31 32 33 34 35 36 37 38 39 40 41 42 43 44 45 46 47 48 49 50
000
ASUS43 KLMK 041810
RWRKY
KENTUCKY REGIONAL WEATHER ROUNDUP
NATIONAL WEATHER SERVICE LOUISVILLE KY
200 PM EDT SAT JUL 04 2015

NOTE "FAIR" INDICATES FEW OR NO CLOUDS BELOW 12,000 FEET
WITH NO SIGNIFICANT WEATHER AND/OR OBSTRUCTIONS TO VISIBILITY.

KYZ001>023-026-027-061>063-070>075-041900-
WESTERN AND SOUTH CENTRAL KENTUCKY

CITY           SKY/WX    TMP DP  RH WIND       PRES   REMARKS
PADUCAH        CLOUDY    80  67  64 VRB3      29.99F
HENDERSON      PTSUNNY   75  64  69 NE5       29.99S
OWENSBORO      PTSUNNY   80  69  69 CALM      30.01S
HOPKINSVILLE   CLOUDY    79  70  75 N6        29.99S
BOWLING GREEN  PTSUNNY   82  68  62 CALM      29.99F
GLASGOW        PTSUNNY   79  68  69 NW5       30.00F
$$

KYZ024-025-028>034-038-045-046-053-041900-
NORTH CENTRAL KENTUCKY

CITY           SKY/WX    TMP DP  RH WIND       PRES   REMARKS
LOUISVILLE/SDF CLOUDY    82  65  56 N3        30.00S
LOUISVILLE/LOU PTSUNNY   80  65  59 E3        30.01S
FORT KNOX      PTSUNNY   77  68  73 NW5       29.99F
$$

KYZ035>037-039>044-047>052-055>060-089>105-041900-
NORTHEAST KENTUCKY

CITY           SKY/WX    TMP DP  RH WIND       PRES   REMARKS
LEXINGTON      PTSUNNY   78  66  66 CALM      30.02F
COVINGTON      MOSUNNY   78  62  57 CALM      30.02S
FRANKFORT      PTSUNNY   78  65  63 N5        30.01F
$$

KYZ054-064>069-076>088-106>120-041900-
SOUTHEAST KENTUCKY

CITY           SKY/WX    TMP DP  RH WIND       PRES   REMARKS
JACKSON        CLOUDY    72  69  90 CALM      30.03S FOG
LONDON         CLOUDY    78  64  61 W5        30.03F
SOMERSET       PTSUNNY   73  68  83 CALM      30.03F
MIDDLESBORO    CLOUDY    79  69  70 NW5       30.02F
MONTICELLO     CLOUDY    80  70  71 VRB5      30.04F
$$



USA.gov is the U.S. government's official web portal to all federal, state and local government web resources and services.